Location: Unspecified
(43.4680°N, 87.1740°E)
Time: 05:16:43
(UTC+00:00)

SL-8 Rocket - Pass Details

Date: 17 April 2021
Orbit: 958 x 989 km, 82.9° (Epoch: 16 May)

Event Time Altitude Azimuth Distance (km) Brightness Sun altitude
Rises 19:37:14 0° 353° (N) 3,690 7.8 -32.3°
Reaches altitude 10° 19:39:46 10° 355° (N) 2,743 7.0 -32.1°
Enters shadow 19:45:46 76° 51° (NE) 1,019 4.0 -31.6°
